Погода в Путуссибау

Индонезия     0°59′15″N   112°55′43″E
темп.,
°C
ветер,
м/с
пор.,
м/с
влажн.,
%
обл.,
%
осадки,
мм/ч
давл.,
гПа
погр.,
м
2 марта, вт
вт201:00+22ссв119498 0.0 101225
04:00+21всв0196100 0.0 101124
07:00+24в018486 0.0 1012151
10:00+33зюз125396 0.0 1012995
13:00+36з124084 0.0 10092042
16:00+32зсз245591 0.0 1007673
19:00+26с137975 0.2 1009106
22:00+23в1197100 1.0 101228
3 марта, ср
ср301:00+22св119899 1.0 101125
04:00+21всв1198100 0.0 101124
07:00+23всв1194100 0.1 101378
10:00+30ю1160100 0.0 1013854
13:00+33юз2245100 0.0 10091819
16:00+27з0190100 2.9 100827
19:00+24с1197100 9.5 101127
22:00+23св2498100 1.5 1013119
4 марта, чт
чт401:00+22в2698100 2.1 1012232
04:00+21всв1399100 0.4 1011123
07:00+22св129696 0.4 1013111
10:00+27ююв1272100 0.0 1012374
13:00+33юз2147100 0.0 1009889
16:00+32юз2251100 0.0 1007639
19:00+25ссв118195 0.1 101024
22:00+23св129342 0.6 101230
5 марта, пт
пт501:00+22св119645 1.3 101123
04:00+22св119951 3.9 101123
07:00+22всв119976 8.8 101345
10:00+23ссв1197100 1.7 1014107
13:00+30ссв225887 1.8 10111034
16:00+27ссв247176 0.3 1010412
19:00+23ссв118988 0.5 101238
22:00+22вюв119583 0.0 101323
6 марта, сб
сб601:00+21всв119664 0.0 101126
04:00+22св118984 0.0 101026
07:00+25всв018067 0.0 1012156
10:00+31ююз115566 0.0 1012905
13:00+30зюз216279 0.0 1009528
16:00+30ю116287 0.1 1007546
19:00+25ссв018569 3.1 100924
22:00+23св1192100 2.1 101123